SCP
0 0 0 0 0 0 0 0 0 0 0 0 0 0 0 0 0 0 0 0 0 0 0 0 0 0 0 0 0 0 0 0 0 0 0 0 0 0 0 0 0 0 0 0
0 0 0 0 0 0 0 0 0 0 0 0 0 0 0 0 0 0 0 0 0 0 0 0 0 0 0 0 0 0 0 0 0 0 0 0 0 0 0 0 0 0 0 0
0 0 0 0 0 0 0 0 0 0 0 0 0 0 0 0 0 0 0 0 0 0 0 0 0 0 0 0 0 0 0 0 0 0 0 0 0 0 0 0 -0 -0 0 0
0 0 0 0 0 0 0 0 0 0 0 0 0 0 0 0 0 0 0 0 0 0 0 0 0 0 0 0 0 0 0 0 0 0 0 0 0 0 0 0 0 0 -0 0
0 0 0 0 0 0 0 0 0 0 0 0 0 0 0 0 0 0 0 0 0 0 0 0 0 0 0 0 0 0 0 0 0 0 0 0 0 0 0 0 0 0 0 -0
0 0 0 0 0 0 0 0 0 0 0 0 0 0 0 0 0 0 0 0 0 0 0 0 0 0 0 0 0 0 0 0 0 0 0 0 0 0 0 0 0 0 0 0
0 0 0 0 0 0 0 0 0 0 0 0 0 0 0 0 0 0 0 0 0 0 0 0 0 0 0 0 0 0 0 0 0 0 0 0 0 0 0 0 0 0 0 0
0 0 0 0 0 0 0 0 0 0 0 0 0 0 0 0 0 0 0 0 0 0 0 0 0 0 0 0 0 0 0 0 0 0 0 0 0 0 0 0 0 0 0 0
0 0 0 0 0 0 0 0 0 0 0 0 0 0 0 0 0 0 0 0 0 0 0 0 0 0 0 0 0 0 0 0 0 0 0 0 0 0 0 0 0 0 0 0
0 0 0 0 0 0 0 0 0 0 0 0 0 0 0 0 0 -0 -0 0 0 0 0 0 0 0 0 0 0 0 0 0 0 0 0 0 0 0 0 0 0 0 0 0
0 0 0 0 0 0 0 0 0 0 0 0 0 0 0 0 -0 -0 -0 -0 0 0 0 0 0 0 0 0 0 0 0 0 0 0 0 0 0 0 0 0 0 0 0 0
0 0 0 0 0 0 0 0 0 0 0 0 0 0 0 0 -0 -0 -0 -0 -0 0 0 0 0 0 0 0 0 0 0 0 0 0 0 0 0 0 0 0 0 0 0 0
0 0 0 0 0 0 0 0 0 0 0 0 0 0 0 0 0 0 -0 0 0 0 0 0 0 0 0 0 0 0 0 0 0 0 0 0 0 0 0 0 0 0 0 0
0 0 0 0 0 0 0 0 0 0 0 0 0 0 0 0 0 0 0 0 0 0 0 0 0 0 0 0 0 0 0 0 0 0 0 0 0 0 0 0 0 0 0 0
0 0 0 0 0 0 0 0 0 0 0 0 0 0 0 0 0 0 0 0 0 0 0 0 0 0 0 0 0 0 0 0 0 0 0 0 0 0 0 0 0 0 0 0
0 0 0 0 0 0 0 0 0 0 0 0 0 0 0 0 0 0 0 0 0 0 0 0 0 0 0 0 0 0 0 0 0 0 0 0 0 0 0 0 0 0 0 0
-0 -0 0 0 0 0 0 0 0 0 0 0 0 0 0 0 0 0 0 0 0 0 0 0 0 0 0 0 0 0 0 0 0 0 0 0 0 0 0 0 0 0 0 0
0 0 0 0 0 0 0 0 0 0 0 0 0 0 0 0 0 0 0 0 0 0 0 0 0 0 0 0 0 0 0 0 0 0 0 0 0 0 0 0 0 0 0 0
0 0 0 0 0 0 0 0 0 0 0 0 0 0 0 0 0 0 0 0 0 0 0 0 0 0 0 0 0 0 0 0 0 0 0 0 0 0 0 0 0 0 0 0
0 0 0 0 0 0 0 0 0 0 0 0 0 0 0 0 0 0 0 0 0 0 0 0 0 0 0 0 0 0 0 0 0 0 0 0 0 0 0 0 0 0 0 0
0 0 0 0 0 0 0 0 0 0 0 0 0 0 0 0 0 0 0 0 0 0 0 0 0 0 0 0 0 0 0 0 0 0 0 0 0 0 0 0 0 0 0 0
0 0 0 0 0 0 0 0 0 0 0 0 0 0 0 0 0 0 0 0 0 0 0 0 0 0 0 0 0 0 0 0 0 0 0 0 0 0 0 0 0 0 0 0
0 0 0 0 0 0 0 0 0 0 0 0 0 0 0 0 0 0 0 0 0 0 0 0 0 0 0 0 0 0 0 0 0 0 0 0 0 0 0 0 0 0 0 0
0 0 0 0 0 0 0 0 0 0 0 0 0 0 0 0 0 0 0 0 0 0 0 0 0 0 0 0 0 0 0 0 0 0 0 0 0 0 0 0 0 0 0 0
0 0 0 0 0 0 0 0 0 0 0 0 0 0 0 0 0 0 0 0 0 0 0 0 0 0 0 0 0 0 0 0 0 0 0 0 0 0 0 0 0 0 0 0
0 0 0 0 0 0 0 0 0 0 0 0 0 0 0 0 0 0 0 0 0 0 0 0 0 0 0 0 0 0 0 0 0 0 0 0 0 0 0 0 0 0 0 0
Wind_Speed
1 2 4 6 8 6 3 4 6 6 3 3 8 12 12 7 6 8 8 7 8 9 6 4 5 5 5 5 6 6 6 5 5 4 3 3 2 2 2 2 3 3 3 4
2 5 7 4 4 5 5 6 7 5 2 3 6 11 10 7 8 8 9 9 8 6 4 4 5 5 6 6 7 7 6 6 6 4 3 2 2 2 2 1 2 3 3 3
6 4 3 4 4 5 6 7 7 5 5 3 4 9 7 5 5 6 7 7 7 7 7 6 6 6 6 6 7 7 7 6 5 4 3 2 2 1 1 1 2 2 3 3
4 3 2 3 5 6 7 5 5 4 3 4 1 7 8 5 5 6 6 6 7 6 6 6 6 6 7 7 6 5 6 6 6 5 5 6 4 4 4 3 2 2 2 3
4 2 3 5 6 5 6 3 3 4 3 5 3 4 9 3 6 7 6 6 6 6 7 7 7 7 6 5 5 4 5 5 6 6 6 6 4 3 2 2 3 3 3 3
4 3 3 4 3 4 2 0 1 1 1 5 6 6 9 5 7 5 5 5 5 5 6 6 5 4 3 3 3 4 4 5 5 6 6 6 6 5 4 4 4 3 2 3
4 3 2 1 0 0 2 3 2 3 2 8 3 5 10 7 5 5 5 5 4 4 5 4 4 4 3 3 3 3 4 4 4 5 6 6 6 6 7 6 5 4 3 3
2 5 3 3 4 3 4 5 6 5 5 5 2 7 8 5 3 2 2 3 2 2 3 3 4 4 4 4 4 4 4 3 3 4 5 4 5 5 4 5 4 5 4 4
4 5 2 2 2 4 3 4 3 3 1 4 6 6 8 2 2 2 1 0 1 2 2 2 2 3 3 3 4 4 4 3 3 4 3 3 4 5 5 4 4 4 4 3
3 4 4 2 0 2 3 3 3 3 3 5 6 5 5 4 3 2 2 2 2 1 1 1 1 2 2 2 2 3 3 4 3 3 3 3 3 4 4 4 5 5 4 4
1 2 3 1 4 5 3 3 3 3 3 4 4 7 4 4 3 2 2 2 1 1 1 1 1 1 1 1 1 2 2 2 2 2 3 3 3 3 2 3 4 4 4 4
1 2 4 5 3 2 4 5 5 4 5 4 4 8 2 1 1 1 1 2 2 1 1 0 0 1 0 0 0 1 1 1 2 2 2 2 2 2 2 3 3 3 4 4
1 2 1 4 2 1 2 3 3 2 2 4 5 8 2 3 3 3 2 3 3 2 2 2 1 1 1 1 1 1 1 2 2 1 1 2 2 2 3 3 3 3 3 4
2 3 5 7 5 3 4 4 3 4 4 6 9 8 6 5 4 4 4 3 3 2 2 2 2 2 2 1 1 1 1 1 1 1 1 2 3 3 3 3 2 2 2 3
2 3 5 6 6 4 6 6 6 9 9 9 8 7 10 7 5 4 4 4 3 3 3 3 3 3 2 2 2 2 2 2 1 1 1 2 2 2 2 2 2 2 2 2
1 3 2 5 5 5 7 7 7 9 8 9 9 11 8 6 4 4 4 3 3 4 4 4 4 4 3 3 3 3 2 2 2 1 2 2 2 2 2 2 2 2 2 1
3 3 2 5 4 3 8 9 9 6 5 6 9 11 6 6 6 5 4 3 3 4 5 5 5 4 4 3 3 3 3 2 2 2 2 2 2 2 2 2 1 2 1 1
5 3 2 2 2 7 7 2 6 7 6 6 6 6 5 5 5 3 2 3 4 5 5 5 5 4 3 3 3 2 2 1 1 2 2 2 2 2 2 2 1 2 1 1
5 5 3 2 4 9 6 2 3 5 6 5 7 7 6 5 3 2 3 3 4 4 4 4 4 4 3 3 3 2 2 1 1 2 2 2 2 2 2 2 2 2 1 1
2 3 4 4 4 8 6 2 2 2 5 3 4 5 4 2 2 5 5 4 4 4 4 5 4 4 3 3 2 2 2 2 2 3 3 2 2 2 2 2 2 1 1 1
3 3 6 6 7 10 6 2 2 4 6 3 1 1 1 2 3 4 5 4 4 4 5 5 4 3 3 3 2 2 2 3 4 3 2 2 2 2 2 2 2 1 1 1
8 6 7 5 7 11 1 3 4 4 2 1 1 1 2 3 3 3 4 4 5 5 5 4 4 4 4 3 2 2 3 4 3 2 2 2 2 2 1 1 1 0 0 0
7 8 7 9 8 1 2 2 1 2 1 2 2 2 2 3 4 4 4 4 5 5 5 4 4 4 5 4 3 3 4 3 3 2 2 2 2 2 1 1 1 0 0 1
4 2 3 4 5 2 1 1 3 3 2 2 2 2 2 3 4 4 4 4 5 5 5 5 4 4 5 5 4 4 4 3 2 2 2 1 1 1 1 1 1 1 1 2
4 2 3 5 4 3 2 1 2 2 2 3 3 3 2 2 3 4 4 5 5 5 5 5 4 5 6 5 5 4 4 3 3 2 2 1 1 1 1 1 1 2 2 3
3 4 5 6 3 3 3 2 1 2 3 3 4 4 4 3 4 5 4 5 5 5 5 5 5 5 6 5 5 4 3 2 2 2 2 2 1 1 1 1 2 3 3 3
Wind_Direction
142 114 213 217 210 224 225 237 258 259 247 237 248 264 275 270 244 244 244 237 230 232 231 207 188 184 177 175 178 185 180 175 164 160 164 172 187 184 184 187 187 189 188 187
83 235 233 227 222 229 239 255 267 284 278 251 269 273 272 254 240 234 231 229 228 229 228 204 186 180 179 187 190 190 187 181 179 176 169 163 155 186 190 188 192 196 193 196
199 231 213 204 220 229 243 235 248 267 312 294 301 295 271 263 249 243 233 225 218 214 210 200 192 192 185 192 200 198 192 186 184 169 146 122 108 97 168 207 216 218 207 203
237 256 215 215 230 214 244 230 240 260 288 283 230 286 279 258 267 253 241 231 221 213 204 197 193 194 197 201 200 200 194 187 185 173 168 167 179 193 207 203 207 218 213 209
239 223 208 224 235 206 231 232 226 243 250 280 243 240 278 264 257 257 244 235 226 215 204 198 197 198 197 192 191 197 192 190 189 184 182 185 194 200 192 183 191 207 219 220
247 240 219 230 241 211 218 32 319 348 116 263 236 210 272 242 236 254 242 234 229 217 206 199 194 186 183 178 182 184 187 193 190 189 189 195 197 191 186 197 202 210 219 222
291 262 245 212 264 297 143 117 15 342 308 250 238 218 251 255 244 229 230 233 224 216 201 194 185 179 177 174 178 182 184 196 195 192 198 204 202 198 201 202 205 207 214 222
241 274 234 205 197 201 201 173 175 213 239 275 262 233 254 277 281 259 227 225 213 206 194 189 191 189 185 182 182 185 189 199 198 199 206 208 204 204 211 208 206 209 215 220
200 255 280 231 212 172 189 209 200 173 263 276 262 273 293 288 312 328 328 300 235 230 200 192 190 187 186 188 192 191 192 202 205 208 209 211 213 213 215 211 210 216 220 215
180 255 267 269 319 240 195 171 140 172 209 254 273 258 252 264 264 295 306 291 277 267 226 204 197 192 191 194 202 188 191 206 213 211 210 220 225 230 220 209 211 217 220 215
174 213 282 271 207 207 180 191 191 186 197 208 267 267 237 227 223 234 261 277 279 281 236 229 227 215 195 174 180 192 205 217 221 223 223 227 228 233 229 222 222 220 219 215
186 174 251 249 246 233 204 205 179 193 236 221 240 268 318 222 231 196 271 315 329 326 326 336 325 358 4 355 181 197 222 245 252 243 235 238 240 231 229 239 241 232 224 219
152 166 290 319 306 331 255 231 201 190 188 210 222 259 344 16 2 352 337 327 329 345 357 354 358 350 324 322 307 255 249 258 272 257 237 247 248 239 239 244 246 241 233 223
150 196 205 223 241 219 253 255 217 196 218 234 233 254 292 320 323 324 325 321 324 340 344 342 329 316 314 314 305 298 296 285 290 286 259 251 251 247 248 251 250 244 238 227
139 224 241 261 272 252 250 251 221 218 225 228 244 247 272 287 288 295 306 320 337 330 329 323 316 315 317 320 319 314 310 319 314 286 270 272 280 268 259 261 263 259 244 233
162 220 253 275 268 262 266 257 236 235 238 244 263 269 278 293 308 312 312 315 315 316 321 323 322 323 319 313 309 311 308 312 312 280 281 301 312 304 284 274 270 265 253 244
189 181 203 267 290 312 267 236 212 213 217 210 237 256 288 303 301 300 302 307 313 318 322 318 315 312 312 308 300 285 292 308 300 290 305 317 311 305 298 287 278 270 263 255
180 182 196 267 353 243 243 181 188 203 226 223 245 271 273 270 285 287 312 329 322 322 320 319 317 317 316 319 316 312 326 309 288 299 312 322 317 305 311 310 291 298 304 269
194 184 183 187 244 270 281 233 178 203 251 230 242 267 289 293 305 292 351 350 323 322 320 316 319 317 321 328 329 336 337 325 316 312 311 315 309 306 313 309 303 306 308 288
191 185 182 191 219 241 256 258 228 160 263 261 233 255 285 355 300 286 335 342 338 344 343 338 338 337 340 337 341 340 327 325 308 302 301 303 298 289 284 288 299 312 299 290
176 194 204 211 233 256 264 275 123 184 260 318 240 249 259 231 245 295 332 339 342 347 347 348 345 341 334 341 349 326 322 306 310 314 316 316 308 297 292 301 313 324 324 350
181 183 199 192 222 250 245 129 180 235 311 345 325 304 294 290 309 329 335 337 342 347 345 347 345 335 337 348 346 319 309 313 323 317 316 314 312 305 305 302 308 338 173 197
200 197 196 201 217 249 130 184 265 342 324 329 321 317 311 312 315 326 329 333 337 337 335 341 337 329 334 343 340 313 316 324 321 312 299 301 312 307 302 277 272 276 210 221
243 247 204 235 250 252 269 337 358 2 349 340 337 324 328 310 313 317 318 326 331 331 334 337 334 325 323 331 331 313 318 321 308 290 285 291 293 298 305 290 264 230 222 223
237 202 228 249 277 308 281 303 309 338 354 348 340 341 335 320 312 313 316 319 319 322 328 328 322 314 313 320 319 317 322 320 305 290 282 279 273 273 285 286 271 260 255 228
215 199 208 239 234 231 256 293 316 315 316 321 326 333 339 330 312 317 314 316 317 317 320 319 317 314 312 312 309 313 314 306 294 288 283 278 274 276 280 290 313 305 289 279